Starlink 33735

operational
NORAD ID: 63474 Int'l Des: 2025-070 Owner: SPXS Country: US Constellation: starlink
LEOCIRCULAR

Starlink 33735について

説明を読み込み中...

リアルタイム位置

3D地球を読み込み中...

次回通過

高度履歴

Altitude vs Time

uPlot chart will show altitude changes over time

軌道要素

1 63474U 25070Q 25353.30186592 .00024136 00000-0 88311-3 0 9990
2 63474 43.0004 353.6567 0000794 259.9424 100.1338 15.27603841 40688
Epoch: Dec 19, 2025 • Age: 18 hours

現在のステータス

高度 486.5 km
速度 7.63 km/s
衛星直下点 42.81°N, 31.3°W
打ち上げ日 Apr 6, 2025
運用期間 0.7 years
タイプ internet

技術仕様

分類 Payload
質量 575.00 kg
乾燥質量 530.00 kg
総質量 575.00 kg
長さ 0.30 m
直径 4.10 m
スパン 29.00 m
形状 Box + pan
製造者 SPXS
バスタイプ Starlink V2MO
フェーズステータス In Orbit
所有者/国 SPXS/US

大規模コンステレーション

Loading constellations...